This is the latest recevied weather packets stored in our database for station/object WA4TPR. If no packets are shown the sender has not sent any weather packets the latest 10 day(s).
| Time | Temp. | Humidity | Pressure | Rain* | Wind** | Luminosity | Snow |
|---|---|---|---|---|---|---|---|
| 1778117875 | 27.78° C | 62% | 1020.1 hPa | 0 mm | - | 0 W/m² | - |
| 1778117573 | 27.78° C | 62% | 1020.2 hPa | 0 mm | - | 0 W/m² | - |
| 1778117270 | 27.22° C | 64% | 1020 hPa | 0 mm | - | 0 W/m² | - |
| 1778116965 | 27.78° C | 65% | 1020.1 hPa | 0 mm | - | 0 W/m² | - |
| 1778116663 | 27.78° C | 61% | 1020 hPa | 0 mm | - | 0 W/m² | - |
| 1778116359 | 27.78° C | 61% | 1020 hPa | 0 mm | - | 0 W/m² | - |
| 1778116059 | 27.78° C | 64% | 1020 hPa | 0 mm | - | 0 W/m² | - |
| 1778115755 | 27.78° C | 62% | 1020 hPa | 0 mm | - | 0 W/m² | - |
| 1778115453 | 27.78° C | 60% | 1019.8 hPa | 0 mm | - | 0 W/m² | - |
| 1778115149 | 27.78° C | 59% | 1019.8 hPa | 0 mm | - | 0 W/m² | - |
| 1778114845 | 28.33° C | 56% | 1019.5 hPa | 0 mm | - | 0 W/m² | - |
| 1778114544 | 28.33° C | 55% | 1019.9 hPa | 0 mm | - | 0 W/m² | - |
| 1778114239 | 28.33° C | 55% | 1019.6 hPa | 0 mm | - | 0 W/m² | - |
| 1778113935 | 28.89° C | 53% | 1019.2 hPa | 0 mm | - | 0 W/m² | - |
| 1778113631 | 29.44° C | 52% | 1019.2 hPa | 0 mm | - | 0 W/m² | - |
| 1778113327 | 29.44° C | 51% | 1019.2 hPa | 0 mm | - | 0 W/m² | - |
| 1778113024 | 29.44° C | 51% | 1019.1 hPa | 0 mm | - | 0 W/m² | - |
| 1778112721 | 30° C | 50% | 1019 hPa | 0 mm | - | 1 W/m² | - |
| 1778112417 | 30° C | 49% | 1019 hPa | 0 mm | - | 2 W/m² | - |
| 1778112113 | 30° C | 49% | 1019.1 hPa | 0 mm | - | 4 W/m² | - |
| 1778111810 | 30.56° C | 48% | 1018.7 hPa | 0 mm | - | 7 W/m² | - |
| 1778111506 | 30.56° C | 47% | 1019 hPa | 0 mm | - | 10 W/m² | - |
| 1778111203 | 31.11° C | 46% | 1018.9 hPa | 0 mm | - | 14 W/m² | - |
| 1778110900 | 31.67° C | 46% | 1018.9 hPa | 0 mm | - | 19 W/m² | - |
| 1778110597 | 31.67° C | 45% | 1018.7 hPa | 0 mm | - | 25 W/m² | - |
* Rain latest hour (hover to see other rain measurements)
** Current wind speed in m/s (hover to see current wind gust speed)